RYR48VM LHBP-LFOB

Flight info

Callsign RYR48VM
Flight time N/A
Altitude 39000
Route GILEP DCT ZOLKU DCT BEGLA DCT LAMSI DCT MAMOR DCT ASPAT DCT VIBOM DCT BETEX DCT IDOSA DCT TOLVU DCT RAPOR DCT VEDUS
Aircraft B738/M-SDE2E3FGHIRWXY/LB1

Departure

Time N/A
Airport Budapest Liszt Ferenc International Airport (LHBP)

Arrival

Time 2026-05-09 10:57
Airport Beauvais-Tillé airport (LFOB)
Time Latitude Longitude Altitude Speed Heading
2026-05-09 09:16 48.18877 15.64843 39116 ft 419 kts 289°
2026-05-09 09:17 48.20811 15.56634 39108 ft 419 kts 289°
2026-05-09 09:17 48.22728 15.48465 39114 ft 420 kts 288°
2026-05-09 09:18 48.24640 15.40291 39110 ft 420 kts 288°
2026-05-09 09:18 48.26532 15.32173 39112 ft 419 kts 288°
2026-05-09 09:19 48.28424 15.24018 39113 ft 419 kts 288°
2026-05-09 09:19 48.30316 15.15841 39115 ft 417 kts 288°
2026-05-09 09:20 48.32199 15.07662 39113 ft 416 kts 288°
2026-05-09 09:20 48.34087 14.99433 39114 ft 419 kts 288°
2026-05-09 09:21 48.35925 14.91393 39111 ft 418 kts 288°
2026-05-09 09:21 48.37787 14.83218 39110 ft 417 kts 288°
2026-05-09 09:22 48.39639 14.75058 39109 ft 418 kts 288°
2026-05-09 09:22 48.41497 14.66831 39103 ft 419 kts 288°
2026-05-09 09:23 48.43315 14.58750 39100 ft 418 kts 288°
2026-05-09 09:23 48.45174 14.50460 39111 ft 418 kts 288°
2026-05-09 09:24 48.46988 14.42341 39105 ft 418 kts 288°
2026-05-09 09:24 48.48828 14.34074 39106 ft 418 kts 287°
2026-05-09 09:25 48.50663 14.25796 39100 ft 417 kts 287°
2026-05-09 09:25 48.52481 14.17555 39103 ft 417 kts 287°
2026-05-09 09:26 48.54256 14.09482 39108 ft 418 kts 287°
2026-05-09 09:26 48.56063 14.01231 39113 ft 418 kts 287°
2026-05-09 09:27 48.57877 13.92914 39102 ft 418 kts 287°
2026-05-09 09:27 48.59675 13.84641 39099 ft 418 kts 287°
2026-05-09 09:28 48.61465 13.76370 39105 ft 418 kts 288°
2026-05-09 09:28 48.63266 13.68018 39108 ft 417 kts 287°
2026-05-09 09:29 48.65019 13.59853 39103 ft 418 kts 287°
2026-05-09 09:29 48.66660 13.51565 39105 ft 419 kts 285°
2026-05-09 09:30 48.68129 13.43088 39113 ft 418 kts 284°
2026-05-09 09:30 48.69571 13.34602 39098 ft 417 kts 284°
2026-05-09 09:31 48.70995 13.26299 39110 ft 418 kts 284°
2026-05-09 09:32 48.73192 13.13572 39107 ft 418 kts 284°
2026-05-09 09:32 48.74653 13.05097 39108 ft 418 kts 284°
2026-05-09 09:33 48.76111 12.96612 39113 ft 418 kts 284°
2026-05-09 09:33 48.77557 12.88149 39114 ft 418 kts 284°
2026-05-09 09:34 48.78990 12.79734 39110 ft 421 kts 284°
2026-05-09 09:34 48.80431 12.71221 39101 ft 419 kts 284°
2026-05-09 09:36 48.86100 12.37333 39104 ft 419 kts 284°
2026-05-09 09:37 48.87498 12.28872 39101 ft 418 kts 284°
2026-05-09 09:37 48.88906 12.20412 39106 ft 418 kts 285°
2026-05-09 09:38 48.90620 12.11985 39103 ft 419 kts 288°
2026-05-09 09:38 48.92457 12.03689 39091 ft 419 kts 288°
2026-05-09 09:39 48.94278 11.95399 39103 ft 421 kts 288°
2026-05-09 09:39 48.96089 11.86998 39101 ft 419 kts 288°
2026-05-09 09:40 48.97872 11.78610 39107 ft 419 kts 288°
2026-05-09 09:40 48.99638 11.70233 39100 ft 418 kts 288°
2026-05-09 09:41 49.01383 11.61904 39096 ft 416 kts 288°
2026-05-09 09:41 49.03125 11.53550 39087 ft 417 kts 288°
2026-05-09 09:42 49.04856 11.45208 39104 ft 417 kts 288°
2026-05-09 09:42 49.06584 11.36850 39096 ft 418 kts 288°
2026-05-09 09:43 49.08305 11.28489 39100 ft 418 kts 287°
2026-05-09 09:43 49.10016 11.20141 39093 ft 418 kts 287°
2026-05-09 09:44 49.11736 11.11714 39098 ft 418 kts 287°
2026-05-09 09:44 49.13450 11.03279 39090 ft 417 kts 287°
2026-05-09 09:45 49.15148 10.94885 39090 ft 417 kts 287°
2026-05-09 09:45 49.16848 10.86448 39091 ft 417 kts 287°
2026-05-09 09:46 49.18533 10.78045 39099 ft 417 kts 287°
2026-05-09 09:46 49.20187 10.69694 39103 ft 417 kts 287°
2026-05-09 09:47 49.21720 10.61256 39105 ft 418 kts 285°
2026-05-09 09:47 49.23220 10.52698 39108 ft 418 kts 285°
2026-05-09 09:48 49.24713 10.44169 39100 ft 416 kts 286°
2026-05-09 09:48 49.26180 10.35805 39099 ft 418 kts 286°
2026-05-09 09:49 49.27679 10.27255 39109 ft 418 kts 285°
2026-05-09 09:49 49.29175 10.18691 39110 ft 418 kts 285°
2026-05-09 09:50 49.30664 10.10134 39111 ft 418 kts 285°
2026-05-09 09:50 49.32132 10.01664 39110 ft 417 kts 285°
2026-05-09 09:51 49.33604 9.93126 39114 ft 419 kts 285°
2026-05-09 09:51 49.35067 9.84602 39115 ft 418 kts 285°
2026-05-09 09:52 49.36516 9.76113 39116 ft 417 kts 285°
2026-05-09 09:52 49.37962 9.67598 39105 ft 416 kts 285°
2026-05-09 09:53 49.39409 9.59036 39107 ft 416 kts 285°
2026-05-09 09:53 49.40830 9.50593 39100 ft 416 kts 285°
2026-05-09 09:54 49.42251 9.42113 39098 ft 416 kts 285°
2026-05-09 09:54 49.43681 9.33533 39094 ft 415 kts 284°
2026-05-09 09:55 49.45087 9.25048 39094 ft 416 kts 284°
2026-05-09 09:55 49.46500 9.16477 39102 ft 417 kts 284°
2026-05-09 09:56 49.47814 9.07868 39081 ft 416 kts 283°
2026-05-09 09:56 49.48992 8.99272 39100 ft 416 kts 282°
2026-05-09 09:57 49.50153 8.90681 39113 ft 415 kts 282°
2026-05-09 09:57 49.51331 8.82014 39112 ft 414 kts 282°
2026-05-09 09:58 49.52509 8.73371 39110 ft 416 kts 282°
2026-05-09 09:58 49.53668 8.64850 39121 ft 415 kts 282°
2026-05-09 09:59 49.54831 8.56265 39113 ft 415 kts 282°
2026-05-09 09:59 49.55998 8.47604 39099 ft 415 kts 282°
2026-05-09 10:00 49.57151 8.38996 39108 ft 416 kts 283°
2026-05-09 10:00 49.58285 8.30474 39093 ft 415 kts 282°
2026-05-09 10:01 49.59428 8.21831 39100 ft 415 kts 282°
2026-05-09 10:01 49.60559 8.13234 39102 ft 415 kts 282°
2026-05-09 10:02 49.61680 8.04655 39098 ft 414 kts 282°
2026-05-09 10:02 49.62806 7.95981 39100 ft 415 kts 282°
2026-05-09 10:03 49.63918 7.87371 39093 ft 416 kts 282°
2026-05-09 10:03 49.65025 7.78746 39094 ft 415 kts 282°
2026-05-09 10:04 49.66139 7.70007 39084 ft 415 kts 282°
2026-05-09 10:04 49.67222 7.61461 39087 ft 415 kts 281°
2026-05-09 10:05 49.68309 7.52826 39095 ft 415 kts 282°
2026-05-09 10:05 49.69401 7.44094 39102 ft 416 kts 281°
2026-05-09 10:06 49.70473 7.35465 39110 ft 416 kts 281°
2026-05-09 10:06 49.71540 7.26827 39113 ft 415 kts 281°
2026-05-09 10:07 49.72619 7.18030 39111 ft 417 kts 281°
2026-05-09 10:07 49.73658 7.09506 39102 ft 417 kts 281°
2026-05-09 10:08 49.74707 7.00844 39090 ft 417 kts 281°
2026-05-09 10:08 49.75768 6.92026 39091 ft 417 kts 281°
2026-05-09 10:09 49.76807 6.83334 39087 ft 418 kts 281°
2026-05-09 10:09 49.77842 6.74615 39082 ft 417 kts 280°
2026-05-09 10:10 49.78878 6.65820 39087 ft 418 kts 280°
2026-05-09 10:10 49.79882 6.57244 39090 ft 418 kts 280°
2026-05-09 10:11 49.80869 6.48477 39083 ft 418 kts 278°
2026-05-09 10:11 49.81084 6.39543 39090 ft 418 kts 265°
2026-05-09 10:12 49.80204 6.30798 39031 ft 418 kts 259°
2026-05-09 10:12 49.79620 6.26434 38704 ft 414 kts 258°
2026-05-09 10:12 49.79026 6.22196 38257 ft 411 kts 258°
2026-05-09 10:12 49.78423 6.17942 37703 ft 410 kts 258°
2026-05-09 10:13 49.77815 6.13613 37083 ft 409 kts 258°
2026-05-09 10:13 49.77244 6.09511 36543 ft 413 kts 258°
2026-05-09 10:13 49.76641 6.05135 36234 ft 418 kts 258°
2026-05-09 10:13 49.76046 6.00788 35799 ft 421 kts 258°
2026-05-09 10:14 49.75452 5.96441 35330 ft 420 kts 258°
2026-05-09 10:14 49.74854 5.92053 34856 ft 418 kts 258°
2026-05-09 10:14 49.74249 5.87766 34346 ft 415 kts 257°
2026-05-09 10:14 49.73493 5.83555 33859 ft 411 kts 252°
2026-05-09 10:15 49.72592 5.79403 33392 ft 407 kts 250°
2026-05-09 10:15 49.71643 5.75368 32951 ft 419 kts 250°
2026-05-09 10:15 49.70628 5.71165 32445 ft 440 kts 249°
2026-05-09 10:15 49.69541 5.66671 31925 ft 451 kts 249°
2026-05-09 10:16 49.68451 5.62143 31408 ft 462 kts 249°
2026-05-09 10:16 49.67384 5.57680 30882 ft 470 kts 249°
2026-05-09 10:16 49.66252 5.52924 30323 ft 475 kts 249°
2026-05-09 10:16 49.65134 5.48207 29771 ft 455 kts 249°
2026-05-09 10:17 49.64099 5.43831 29254 ft 437 kts 249°
2026-05-09 10:17 49.63070 5.39476 28746 ft 420 kts 249°
2026-05-09 10:17 49.62101 5.35345 28260 ft 405 kts 250°
2026-05-09 10:17 49.61224 5.31401 27793 ft 391 kts 250°
2026-05-09 10:18 49.60400 5.27540 27339 ft 378 kts 250°
2026-05-09 10:18 49.59690 5.23703 26894 ft 366 kts 256°
2026-05-09 10:18 49.59307 5.19959 26464 ft 356 kts 263°
2026-05-09 10:18 49.59166 5.16196 26085 ft 361 kts 267°
2026-05-09 10:19 49.59144 5.12274 25577 ft 368 kts 269°
2026-05-09 10:19 49.59177 5.08375 25126 ft 365 kts 270°
2026-05-09 10:19 49.59228 5.04475 24674 ft 361 kts 270°
2026-05-09 10:19 49.59279 5.00664 24230 ft 358 kts 270°
2026-05-09 10:20 49.59325 4.96822 23784 ft 356 kts 270°
2026-05-09 10:20 49.59363 4.93071 23351 ft 353 kts 269°
2026-05-09 10:20 49.59396 4.89357 22918 ft 351 kts 269°
2026-05-09 10:20 49.59424 4.85645 22483 ft 348 kts 269°
2026-05-09 10:21 49.59450 4.81927 22047 ft 346 kts 269°
2026-05-09 10:21 49.59473 4.78278 21614 ft 344 kts 269°
2026-05-09 10:21 49.59494 4.74601 21181 ft 341 kts 269°
2026-05-09 10:21 49.59513 4.70995 20753 ft 339 kts 269°
2026-05-09 10:22 49.59532 4.67361 20319 ft 337 kts 269°
2026-05-09 10:22 49.59549 4.63837 20046 ft 329 kts 269°
2026-05-09 10:22 49.59565 4.60417 20046 ft 322 kts 269°
2026-05-09 10:22 49.59578 4.56947 20046 ft 327 kts 269°
2026-05-09 10:23 49.59591 4.53466 20044 ft 327 kts 269°
2026-05-09 10:23 49.59602 4.49932 20044 ft 326 kts 269°
2026-05-09 10:23 49.59613 4.46469 20042 ft 327 kts 269°
2026-05-09 10:23 49.59624 4.42992 20042 ft 326 kts 269°
2026-05-09 10:24 49.59633 4.39490 20028 ft 326 kts 269°
2026-05-09 10:24 49.59641 4.36057 19405 ft 327 kts 269°
2026-05-09 10:24 49.59647 4.32699 18607 ft 328 kts 268°
2026-05-09 10:24 49.59653 4.29163 17757 ft 329 kts 268°
2026-05-09 10:25 49.59658 4.25671 16918 ft 329 kts 268°
2026-05-09 10:25 49.59662 4.22203 16081 ft 328 kts 268°
2026-05-09 10:25 49.59665 4.18718 15240 ft 327 kts 269°
2026-05-09 10:25 49.59666 4.15250 14401 ft 326 kts 269°
2026-05-09 10:26 49.59667 4.11805 13732 ft 319 kts 269°
2026-05-09 10:26 49.59667 4.08439 13237 ft 308 kts 269°
2026-05-09 10:26 49.59668 4.05304 12868 ft 295 kts 269°
2026-05-09 10:26 49.59667 4.02230 12618 ft 285 kts 269°
2026-05-09 10:27 49.59666 3.99171 12410 ft 288 kts 269°
2026-05-09 10:27 49.59663 3.96127 12139 ft 287 kts 268°
2026-05-09 10:27 49.59660 3.93148 11892 ft 284 kts 268°
2026-05-09 10:27 49.59656 3.90138 11643 ft 282 kts 268°
2026-05-09 10:28 49.59652 3.87127 11395 ft 281 kts 268°
2026-05-09 10:28 49.59646 3.84127 11147 ft 281 kts 268°
2026-05-09 10:28 49.59640 3.81144 10898 ft 280 kts 268°
2026-05-09 10:28 49.59634 3.78182 10646 ft 279 kts 268°
2026-05-09 10:29 49.59626 3.75200 10396 ft 278 kts 268°
2026-05-09 10:29 49.59618 3.72248 10146 ft 277 kts 268°
2026-05-09 10:29 49.59610 3.69395 9906 ft 274 kts 268°
2026-05-09 10:29 49.59600 3.66490 9653 ft 269 kts 268°
2026-05-09 10:30 49.59591 3.63632 9410 ft 267 kts 268°
2026-05-09 10:30 49.59579 3.60798 9167 ft 269 kts 268°
2026-05-09 10:30 49.59567 3.57888 9041 ft 266 kts 268°
2026-05-09 10:30 49.59515 3.55045 8949 ft 269 kts 263°
2026-05-09 10:31 49.59218 3.52229 8706 ft 269 kts 256°
2026-05-09 10:31 49.58770 3.49452 8460 ft 268 kts 254°
2026-05-09 10:31 49.58306 3.46758 8221 ft 268 kts 255°
2026-05-09 10:31 49.57849 3.44002 7977 ft 267 kts 255°
2026-05-09 10:32 49.57403 3.41194 7726 ft 267 kts 255°
2026-05-09 10:32 49.56977 3.38455 7485 ft 267 kts 255°
2026-05-09 10:32 49.56548 3.35680 7239 ft 267 kts 255°
2026-05-09 10:32 49.56119 3.32912 6993 ft 267 kts 255°
2026-05-09 10:33 49.55694 3.30174 6755 ft 268 kts 255°
2026-05-09 10:33 49.55261 3.27393 6508 ft 268 kts 255°
2026-05-09 10:33 49.54828 3.24619 6263 ft 268 kts 255°
2026-05-09 10:33 49.54398 3.21871 6016 ft 267 kts 255°
2026-05-09 10:34 49.53965 3.19111 5767 ft 267 kts 255°
2026-05-09 10:34 49.53106 3.13644 5283 ft 267 kts 255°
2026-05-09 10:34 49.52679 3.10884 5040 ft 267 kts 256°
2026-05-09 10:35 49.52298 3.08127 4796 ft 267 kts 257°
2026-05-09 10:35 49.51930 3.05320 4549 ft 267 kts 257°
2026-05-09 10:35 49.51565 3.02555 4303 ft 267 kts 257°
2026-05-09 10:35 49.51193 2.99794 4060 ft 266 kts 257°
2026-05-09 10:36 49.50814 2.97024 3816 ft 266 kts 257°
2026-05-09 10:36 49.50433 2.94254 3571 ft 266 kts 257°
2026-05-09 10:36 49.50058 2.91546 3331 ft 266 kts 257°
2026-05-09 10:36 49.49680 2.88812 3088 ft 267 kts 257°
2026-05-09 10:37 49.49294 2.86027 3035 ft 263 kts 257°
2026-05-09 10:37 49.48914 2.83287 3044 ft 266 kts 257°
2026-05-09 10:37 49.48531 2.80536 3051 ft 266 kts 257°
2026-05-09 10:37 49.48147 2.77780 3051 ft 266 kts 257°
2026-05-09 10:38 49.47759 2.75001 3048 ft 265 kts 257°
2026-05-09 10:38 49.47374 2.72248 3048 ft 265 kts 257°
2026-05-09 10:38 49.46989 2.69493 3046 ft 265 kts 257°
2026-05-09 10:38 49.46607 2.66770 3047 ft 265 kts 257°
2026-05-09 10:39 49.46216 2.63995 3049 ft 266 kts 257°
2026-05-09 10:39 49.45822 2.61202 3050 ft 266 kts 257°
2026-05-09 10:39 49.45457 2.58615 3048 ft 266 kts 257°
2026-05-09 10:39 49.45061 2.55820 3045 ft 266 kts 257°
2026-05-09 10:40 49.44669 2.53047 3046 ft 266 kts 257°
2026-05-09 10:40 49.44284 2.50334 3048 ft 266 kts 257°
2026-05-09 10:40 49.43894 2.47591 3049 ft 266 kts 257°
2026-05-09 10:40 49.43499 2.44819 3046 ft 266 kts 257°
2026-05-09 10:41 49.43113 2.42112 3034 ft 250 kts 257°
2026-05-09 10:41 49.42752 2.39572 2826 ft 238 kts 257°
2026-05-09 10:41 49.42416 2.37224 2587 ft 229 kts 257°
2026-05-09 10:41 49.42081 2.34898 2340 ft 221 kts 257°
2026-05-09 10:42 49.41754 2.32619 2221 ft 208 kts 256°
2026-05-09 10:42 49.41460 2.30570 2216 ft 194 kts 256°
2026-05-09 10:42 49.41175 2.28584 2209 ft 189 kts 257°
2026-05-09 10:42 49.40889 2.26618 2122 ft 191 kts 257°
2026-05-09 10:43 49.40606 2.24646 1930 ft 189 kts 257°
2026-05-09 10:43 49.40482 2.22712 1755 ft 176 kts 280°
2026-05-09 10:43 49.40968 2.21135 1803 ft 163 kts 312°
2026-05-09 10:43 49.41674 2.19756 1719 ft 167 kts 308°
2026-05-09 10:44 49.42309 2.18281 1284 ft 165 kts 305°
2026-05-09 10:44 49.42926 2.16855 937 ft 155 kts 307°
2026-05-09 10:44 49.43521 2.15575 696 ft 153 kts 308°
2026-05-09 10:44 49.44144 2.14252 504 ft 148 kts 307°
2026-05-09 10:45 49.44701 2.12977 318 ft 139 kts 306°
2026-05-09 10:46 49.47201 2.07597 2316 ft 160 kts 313°
2026-05-09 10:46 49.47936 2.06124 2239 ft 192 kts 306°
2026-05-09 10:46 49.48674 2.04392 1874 ft 207 kts 305°
2026-05-09 10:46 49.49475 2.02485 1767 ft 217 kts 304°
2026-05-09 10:47 49.50351 2.00567 1785 ft 223 kts 317°
2026-05-09 10:47 49.51639 1.99340 1793 ft 220 kts 350°
2026-05-09 10:47 49.53130 1.99127 1795 ft 215 kts 359°
2026-05-09 10:47 49.54611 1.98787 1846 ft 216 kts 351°
2026-05-09 10:48 49.56087 1.98268 1937 ft 219 kts 350°
2026-05-09 10:48 49.57541 1.97565 2061 ft 224 kts 333°
2026-05-09 10:48 49.58683 1.96026 2203 ft 226 kts 312°
2026-05-09 10:48 49.59846 1.94403 2352 ft 225 kts 335°
2026-05-09 10:49 49.61197 1.93233 2589 ft 228 kts 324°
2026-05-09 10:49 49.62263 1.91439 2827 ft 230 kts 307°
2026-05-09 10:49 49.63191 1.89378 2935 ft 234 kts 306°
2026-05-09 10:49 49.64098 1.87317 2911 ft 230 kts 306°
2026-05-09 10:50 49.64985 1.85301 2917 ft 231 kts 306°
2026-05-09 10:50 49.65895 1.83235 2916 ft 231 kts 306°
2026-05-09 10:50 49.66786 1.81197 2917 ft 232 kts 303°
2026-05-09 10:50 49.67328 1.78917 2913 ft 233 kts 274°
2026-05-09 10:51 49.67048 1.76475 2915 ft 232 kts 240°
2026-05-09 10:51 49.66026 1.74678 2916 ft 226 kts 209°
2026-05-09 10:51 49.64608 1.73936 2927 ft 217 kts 179°
2026-05-09 10:51 49.63098 1.74014 2964 ft 223 kts 165°
2026-05-09 10:52 49.61713 1.75029 2961 ft 220 kts 135°
2026-05-09 10:52 49.60702 1.76723 2958 ft 220 kts 129°
2026-05-09 10:52 49.59693 1.78526 2956 ft 218 kts 127°
2026-05-09 10:52 49.58798 1.80386 2961 ft 219 kts 123°
2026-05-09 10:53 49.57957 1.82338 2960 ft 218 kts 121°
2026-05-09 10:53 49.57133 1.84289 2960 ft 219 kts 122°
2026-05-09 10:53 49.56329 1.86160 2961 ft 219 kts 122°
2026-05-09 10:53 49.55483 1.88116 2962 ft 218 kts 122°
2026-05-09 10:54 49.54642 1.90061 2961 ft 218 kts 122°
2026-05-09 10:54 49.53811 1.91989 2963 ft 219 kts 122°
2026-05-09 10:54 49.52959 1.93962 2877 ft 221 kts 122°
2026-05-09 10:54 49.52112 1.95919 2578 ft 222 kts 122°
2026-05-09 10:55 49.51273 1.97859 2276 ft 221 kts 122°
2026-05-09 10:55 49.50443 1.99770 2017 ft 208 kts 122°
2026-05-09 10:55 49.49679 2.01537 1718 ft 197 kts 121°
2026-05-09 10:55 49.48978 2.03147 1463 ft 174 kts 121°
2026-05-09 10:56 49.48350 2.04597 1283 ft 152 kts 121°
2026-05-09 10:56 49.47781 2.05909 1095 ft 143 kts 120°
2026-05-09 10:56 49.47236 2.07164 871 ft 143 kts 121°
2026-05-09 10:56 49.46674 2.08432 674 ft 144 kts 121°
2026-05-09 10:57 49.46126 2.09702 506 ft 140 kts 120°
2026-05-09 10:57 49.45599 2.10915 349 ft 131 kts 120°
2026-05-09 10:57 49.45188 2.11864 327 ft 78 kts 123°
2026-05-09 10:57 49.44982 2.12337 320 ft 28 kts 123°
2026-05-09 10:58 49.44905 2.12535 315 ft 22 kts 110°
2026-05-09 10:58 49.44870 2.12565 314 ft 11 kts 329°
2026-05-09 10:58 49.44922 2.12478 317 ft 11 kts 304°
2026-05-09 10:58 49.44975 2.12359 320 ft 20 kts 304°
2026-05-09 10:59 49.45082 2.12112 323 ft 27 kts 302°
2026-05-09 10:59 49.45188 2.11867 327 ft 27 kts 304°
2026-05-09 10:59 49.45290 2.11633 333 ft 26 kts 303°
2026-05-09 10:59 49.45394 2.11398 337 ft 24 kts 305°
2026-05-09 11:00 49.45472 2.11332 340 ft 12 kts 24°
2026-05-09 11:00 49.45541 2.11417 339 ft 13 kts 43°
2026-05-09 11:00 49.45612 2.11518 341 ft 13 kts 40°
2026-05-09 11:00 49.45686 2.11610 344 ft 12 kts 27°
2026-05-09 11:01 49.45757 2.11566 347 ft 11 kts 312°
2026-05-09 11:01 49.45805 2.11465 349 ft 11 kts 304°
2026-05-09 11:01 49.45853 2.11375 351 ft 5 kts 311°